Location: Newark
(46.7000°N, 60.6000°W)
Time: 20:31:39
(UTC+00:00)

Envisat - Pass Details

Date: 25 September 2020
Orbit: 764 x 766 km, 98.1° (Epoch: 20 October)

Event Time Altitude Azimuth Distance (km) Brightness Sun altitude
Rises 08:29:41 0° 35° (NE) 3,241 7.1 -15.1°
Reaches altitude 10° 08:34:55 10° 81° (E) 2,305 6.9 -14.2°
Maximum altitude 08:35:15 10° 85° (E) 2,300 6.9 -14.2°
Drops below altitude 10° 08:35:36 10° 89° (E) 2,304 6.8 -14.1°
Sets 08:40:48 0° 135° (SE) 3,220 6.7 -13.2°
